www.pogodaiklimat.ru

Погода и климат >> Архив погоды >> Индонезия >> Колака


ПОГОДА в Колаке

  • Прогноз погоды в Колаке
  • Монитор погоды в Колаке

АРХИВ ПОГОДЫ в Колаке

Время (UTC), дата Ветер
(напр.,м/с)
 
Видим.   Явления Облачность Т
(С)
Тd
(С)
f
(%)
Тe
(С)
Тes
(С)
Комфортность P
(гПа)
Po
(гПа)
Тmin
(С)
Tmax
(С)
R
(мм)
R24
(мм)
S
(см)
00 14.06 штиль 0 10 км 8/3 570 м
[Cu med, cong Ac As Ci fib]
+26.7 +24.8 89 +38 +41 очень
душно
1011.7 1010.2 +24.9 0.8
03 14.06 С 1 10 км 9/4 570 м
[Cu med, cong Ac As Ci fib]
+30.0 +24.5 72 +42 +49 опасность
перегрева
1010.7 1009.2
06 14.06 В 2 10 км 9/4 570 м
[Cu med, cong Ac As Ci fib]
+30.3 +23.8 68 +41 +46 опасность
перегрева
1008.1 1006.6
12 14.06 штиль 0 8000 м 9/3 570 м
[Cu med, cong Ac trans Ci fib]
+26.4 +24.6 90 +37 +37 очень
душно
1010.5 1009.0 +31.8
00 15.06 штиль 0 10 км 1/1 570 м
[Cu med, cong Ac trans Ci fib]
+26.4 +22.5 79 +35 +40 очень
душно
1012.6 1011.1 +22.4
03 15.06 З 3 10 км 3/1 570 м
[Cu med, cong Ac trans Ci fib]
+30.8 +21.4 57 +39 +51 опасность
солнечного
удара
1011.9 1010.4
06 15.06 З 3 10 км 5/3 570 м
[Cu med, cong Ac trans Ci fib]
+30.8 +22.7 62 +40 +47 очень
душно
1009.6 1008.1
12 15.06 штиль 0 9000 м 5/1 570 м
[Cu med, cong Ac trans Ci fib]
+26.4 +24.0 87 +37 +37 очень
душно
1011.8 1010.3 +32.2
00 16.06 штиль 0 10 км 3/1 570 м
[Cu med, cong Ac trans Ci fib]
+27.6 +21.7 70 +35 +40 очень
душно
1012.4 1010.9 +22.2
03 16.06 СВ 3 10 км 4/1 570 м
[Cu med, cong Ac trans Ci fib]
+31.9 +21.0 53 +40 +51 опасность
солнечного
удара
1011.8 1010.3
06 16.06 В 1 10 км 4/1 570 м
[Cu med, cong Ac trans Ci fib]
+33.0 +21.1 50 +41 +52 опасность
перегрева
1009.4 1007.9
12 16.06 штиль 0 9000 м 9/3 570 м
[Cu med, cong Ac trans Ci fib]
+27.6 +24.4 83 +39 +39 очень
душно
1011.6 1010.2 +33.4
00 17.06 штиль 0 10 км 5/3 570 м
[Cu Sc Ac trans Ci fib]
+28.2 +22.6 72 +37 +41 очень
душно
1012.9 1011.4 +24.2 1
03 17.06 В 4 10 км 9/3 600 м
[Cu med, cong Ac As Ci fib]
+30.6 +21.7 59 +39 +44 очень
душно
1012.6 1011.1
06 17.06 штиль 0 10 км 9/3 600 м
[Cu med, cong Ac As Ci fib]
+33.0 +20.4 48 +40 +47 очень
душно
1010.1 1008.6
12 17.06 штиль 0 7000 м 9/4 600 м
[Cu med, cong Ac As Ci fib]
+26.9 +22.6 77 +35 +35 очень
душно
1012.5 1011.0 +34.2
00 18.06 В 2 10 км 8/3 600 м
[Cu med, cong Ac trans Ci fib]
+28.9 +21.2 63 +36 +39 очень
душно
1012.8 1011.3 +25.2
03 18.06 В 2 10 км 9/3 600 м
[Cu med, cong Ac As Ci fib]
+30.4 +21.2 58 +38 +45 очень
душно
1011.9 1010.4
06 18.06 В 1 10 км 9/3 570 м
[Cu med, cong Ac As Ci fib]
+30.3 +21.5 59 +38 +44 очень
душно
1009.8 1008.3
12 18.06 штиль 0 7000 м 8/3 570 м
[Cu med, cong Ac As Ci fib]
+25.7 +22.6 83 +34 +34 очень
душно
1011.0 1009.5 +32.0
00 19.06 В 1 9000 м 10/4 570 м
[Cu med, cong Ac As]
+26.9 +22.7 78 +36 +37 очень
душно
1011.6 1010.1 +25.4
03 19.06 ЮВ 1 10 км 9/3 570 м
[Cu med, cong Ac As Ci fib]
+30.3 +22.8 64 +40 +48 очень
душно
1011.1 1009.6
06 19.06 В 1 10 км 10/4 570 м
[Cu med, cong Ac As]
+29.8 +22.2 64 +39 +41 очень
душно
1009.1 1007.6
12 19.06 штиль 0 7000 м 10/4 570 м
[Cu med, cong Ac As]
+25.4 +22.8 86 +34 +34 очень
душно
1011.0 1009.5 +31.8 0.0
00 20.06 В 1 10 км 9/4 570 м
[Cu med, cong Ac As Ci fib]
+27.2 +22.1 74 +35 +37 очень
душно
1012.4 1010.9 +24.4 0.0
03 20.06 СВ 3 10 км 6/3 570 м
[Cu med, cong Ac trans Ci fib]
+30.9 +21.7 58 +39 +47 очень
душно
1011.7 1010.2
06 20.06 З 1 10 км 9/4 570 м
[Cu med, cong Ac trans Ci fib]
+30.9 +22.5 61 +40 +46 очень
душно
1009.8 1007.3
12 20.06 штиль 0 9000 м 5/3 570 м
[Cu med, cong Ac trans Ci fib]
+26.0 +22.1 79 +34 +34 очень
душно
1011.6 1010.0 +32.8

 

Местоположение метеостанции Колака (Индонезия): широта -4.30 долгота 121.53 высота над уровнем моря 3 м.

В архиве по умолчанию представлена погода в Колаке за последнюю неделю. Архивные данные за месяц целиком и за предыдущие месяцы, начиная с января 2011 года, Вы можете получить, выбрав интересующий диапазон дат из раскрывающегося списка и нажав кнопку "Ввод!".


*Определитесь, кто Вы:
робот инопланетянин человек

Внимание! Время в таблицах - всемирное. Для получения местного времени необходимо прибавить поправку, которая равна 8 ч.

Смотрите также архив погоды в соседних городах и на ближайших метеорологических станциях:

Погода в Кендари (Индонезия) (102 км)
Погода в Бау-Бау (Индонезия) (177 км)
Погода в Масамбе (Индонезия) (234 км)
Погода в Аэропорту Султана Хасануддин (Индонезия) (236 км)
Погода в Уджангпанданге (Индонезия) (236 км)
Погода в Посо (Индонезия) (337 км)
Погода в Маджене (Индонезия) (345 км)
Погода в Лувуке (Индонезия) (403 км)
Погода в Тауне (Индонезия) (444 км)
Погода в Палу (Индонезия) (450 км)

Пояснения к столбцам:

Ветер - указаны скорость ветра в м/с - средняя за 10 мин, порывы в срок и между сроками (в фигурных скобках) и направление, откуда дует ветер: С - северный, СВ - северо-восточный, В - восточный, ЮВ - юго-восточный, Ю - южный, ЮЗ - юго-западный, З - западный, СЗ - северо-западный.
Видимость - горизонтальная дальность видимости в метрах или километрах. При видимости от 1 до 10 км при отсутствии осадков обычно наблюдается дымка, при ухудшении видимости до 1 км и менее - туман. В сухую погоду видимость может ухудшаться дымом, пылью или мглою.
Явления - указаны атмосферные явления, наблюдавшиеся в срок или в последний час перед сроком; фигурными скобками обозначены явления, наблюдавшиеся между сроками (за 1-3 часа до срока); квадратными скобками обозначены град или гололедные отложения с указанием их диаметра в мм.
Облачность - указаны через наклонную черту общая и нижняя облачность в баллах и высота нижней границы облаков в метрах; квадратными скобками обозначены формы облаков: Ci - перистые, Cs - перисто-слоистые, Cc - перисто-кучевые, Ac - высококучевые, As - высокослоистые, Sc - слоисто-кучевые, Ns - слоисто-дождевые, Cu - кучевые, Cb - кучево-дождевые. Подробнее классификацию облаков см. в Атласе облаков (PDF).
T - Температура воздуха - температура, измеренная на высоте 2 м над землей.
Td - Температура точки росы - температура, при понижении до которой содержащийся в воздухе водяной пар достигнет насыщения.
f - Относительная влажность воздуха - влажноcть воздуха, измеренная на высоте 2 м над землей.
Te - Эффективная температура - температура, которую ощущает одетый по сезону человек в тени. Характеристика душности погоды. При расчете учитывается влияние влажности воздуха и скорости ветра на теплоощущения человека.
Tes - Эффективная температура на солнце - температура, которую ощущает человек, с поправкой на солнечный нагрев. Характеристика знойности погоды. Зависит от высоты солнца над горизонтом, облачности и скорости ветра. Ночью, в пасмурную погоду, а также при ветре 12 м/с и более поправка равна нулю.
P - Атмосферное давление - приведенное к уровню моря атмосферное давление.
Po - Атмосферное давление - измеренное на уровне метеостанции атмосферное давление.
Tmin - Минимальная температура - минимум температуры воздуха на высоте 2 м над землей.
Tmax - Максимальная температура - максимум температуры воздуха на высоте 2 м над землей.
R - Количество осадков - Количество выпавших осадков за период времени, мм. При наведении курсора мыши на число - период времени, за который выпало указанное количество осадков.
R24 - Количество осадков - Количество выпавших осадков за 24 часа, мм.
S - Снежный покров - Высота снежного покрова, см. При наведении курсора мыши на число - состояние снежного покрова и степень покрытия местности в баллах.